Language: 


Des rapports , des résumés tant et plus, au choix de chacun....


Données statistiques de la station
Quotidien Rapport Janvier 14, 2017 Unités:  Métrique    Anglais   les deux
« Précédent Jour
Suivant Jour »
Quotidien Hebdomadaire Mensuel Annuel Actuel
  Haut: Bas: Moyen:
Température: 6.0 °C 0.0 °C 2.8 °C
Pt de rosée: 3.5 °C -2.7 °C -0.5 °C
Humidité: 94 % 0 % 79 %
Vitesse du vent: 20.1 km/h 0.0 km/h 7.6 km/h
Rafales: 28.5 km/h - -
Vent:- - West
Pression: 1018.8 hPa 0.0 hPa -
Précipitation: 0.0 mm    
Historical Graphs
 
 
Données statistiques pour Janvier 14, 2017
Heure Température Point de rosée Pression Vent Vitesse du vent Refales Humidité Pluie (taux horaire)
00:01 4.3 °C -0.9 °C 1011.1 hPa North 7.6 km/h 28.5 km/h 69 % 0.0 mm
00:06 4.3 °C -0.9 °C 1011.1 hPa NNE 15.1 km/h 21.2 km/h 69 % 0.0 mm
00:11 4.2 °C -0.8 °C 1011.1 hPa North 13.7 km/h 24.5 km/h 70 % 0.0 mm
00:16 4.2 °C -0.8 °C 1011.1 hPa NW 12.6 km/h 24.5 km/h 70 % 0.0 mm
00:21 4.1 °C -0.9 °C 1011.1 hPa North 14.0 km/h 18.0 km/h 70 % 0.0 mm
00:26 4.1 °C -0.9 °C 1011.1 hPa NW 6.9 km/h 18.3 km/h 70 % 0.0 mm
00:31 4.0 °C -0.8 °C 1011.1 hPa North 6.4 km/h 18.3 km/h 71 % 0.0 mm
00:36 4.0 °C -0.8 °C 1011.1 hPa NNW 12.2 km/h 18.3 km/h 71 % 0.0 mm
00:41 4.0 °C -0.6 °C 1012.1 hPa West 10.1 km/h 13.0 km/h 72 % 0.0 mm
00:46 3.9 °C -0.7 °C 1012.1 hPa NW 6.4 km/h 17.7 km/h 72 % 0.0 mm
00:51 3.9 °C -0.5 °C 1012.1 hPa WSW 6.9 km/h 17.7 km/h 73 % 0.0 mm
00:56 3.9 °C -0.5 °C 1012.1 hPa WNW 9.0 km/h 16.6 km/h 73 % 0.0 mm
01:01 3.8 °C -0.6 °C 1012.1 hPa NNW 6.9 km/h 17.7 km/h 73 % 0.0 mm
01:06 3.8 °C -0.6 °C 1012.1 hPa NNE 9.0 km/h 20.1 km/h 73 % 0.0 mm
01:11 3.8 °C -0.6 °C 1013.1 hPa WNW 11.9 km/h 20.1 km/h 73 % 0.0 mm
01:16 3.7 °C -0.7 °C 1013.1 hPa NNW 14.8 km/h 16.9 km/h 73 % 0.0 mm
01:21 3.7 °C -0.7 °C 1013.1 hPa North 9.7 km/h 20.1 km/h 73 % 0.0 mm
01:26 3.6 °C -0.8 °C 1013.1 hPa North 6.1 km/h 21.6 km/h 73 % 0.0 mm
01:31 3.6 °C -0.9 °C 1013.1 hPa North 7.9 km/h 21.6 km/h 73 % 0.0 mm
01:36 3.4 °C -0.9 °C 1013.1 hPa NNE 9.0 km/h 19.8 km/h 73 % 0.0 mm
01:41 3.3 °C -1.1 °C 1013.1 hPa North 13.0 km/h 19.8 km/h 73 % 0.0 mm
01:46 3.2 °C -1.2 °C 1013.1 hPa NNE 11.6 km/h 16.9 km/h 73 % 0.0 mm
01:51 3.2 °C -1.2 °C 1013.1 hPa WNW 9.7 km/h 14.0 km/h 73 % 0.0 mm
01:56 3.1 °C -1.1 °C 1013.1 hPa WNW 5.8 km/h 13.0 km/h 74 % 0.0 mm
02:02 0.0 °C -1.1 °C 0.0 hPa NNW 19.5 km/h 19.5 km/h 0 % 0.0 mm
02:07 3.1 °C -0.9 °C 1013.1 hPa NW 11.9 km/h 19.5 km/h 75 % 0.0 mm
02:12 3.1 °C -0.9 °C 1013.1 hPa WNW 13.7 km/h 16.9 km/h 75 % 0.0 mm
02:17 3.1 °C -0.9 °C 1013.1 hPa NNW 7.6 km/h 13.7 km/h 75 % 0.0 mm
02:22 3.1 °C -0.9 °C 1014.1 hPa NE 10.8 km/h 15.1 km/h 75 % 0.0 mm
02:27 3.1 °C -0.9 °C 1014.1 hPa WNW 9.3 km/h 15.1 km/h 75 % 0.0 mm
02:32 3.1 °C -0.9 °C 1014.1 hPa NW 7.9 km/h 15.4 km/h 75 % 0.0 mm
02:37 3.1 °C -1.2 °C 1013.1 hPa North 10.5 km/h 15.4 km/h 74 % 0.0 mm
02:42 3.1 °C -1.2 °C 1013.1 hPa SSW 9.0 km/h 16.9 km/h 74 % 0.0 mm
02:47 3.1 °C -1.2 °C 1013.1 hPa WNW 3.5 km/h 16.9 km/h 74 % 0.0 mm
02:52 3.1 °C -1.2 °C 1012.1 hPa WNW 5.8 km/h 15.8 km/h 74 % 0.0 mm
02:57 2.9 °C -1.2 °C 1012.1 hPa NW 5.8 km/h 14.8 km/h 74 % 0.0 mm
03:02 3.1 °C -1.2 °C 1012.1 hPa West 9.0 km/h 16.6 km/h 74 % 0.0 mm
03:07 2.9 °C -1.4 °C 1013.1 hPa NNW 6.9 km/h 16.6 km/h 73 % 0.0 mm
03:12 2.9 °C -1.4 °C 1013.1 hPa NE 6.4 km/h 19.5 km/h 73 % 0.0 mm
03:17 2.8 °C -1.3 °C 1013.1 hPa NNW 7.6 km/h 19.5 km/h 74 % 0.0 mm
03:22 2.8 °C -1.5 °C 1014.1 hPa North 7.9 km/h 15.8 km/h 73 % 0.0 mm
03:27 2.7 °C -1.6 °C 1014.1 hPa WNW 4.3 km/h 13.0 km/h 73 % 0.0 mm
03:32 2.7 °C -1.4 °C 1014.1 hPa WNW 6.1 km/h 14.3 km/h 74 % 0.0 mm
03:37 2.7 °C -1.4 °C 1014.1 hPa WNW 3.5 km/h 14.3 km/h 74 % 0.0 mm
03:42 2.7 °C -1.4 °C 1014.1 hPa North 10.1 km/h 16.6 km/h 74 % 0.0 mm
03:47 2.7 °C -1.4 °C 1014.1 hPa North 9.0 km/h 17.2 km/h 74 % 0.0 mm
03:52 2.7 °C -1.4 °C 1014.1 hPa NE 1.4 km/h 17.7 km/h 74 % 0.0 mm
03:57 2.7 °C -1.4 °C 1014.1 hPa NW 11.9 km/h 17.7 km/h 74 % 0.0 mm
04:02 2.7 °C -1.7 °C 1014.1 hPa West 12.6 km/h 13.7 km/h 73 % 0.0 mm
04:07 2.7 °C -1.7 °C 1014.1 hPa WNW 14.0 km/h 14.0 km/h 73 % 0.0 mm
04:12 2.7 °C -1.9 °C 1014.1 hPa WNW 8.7 km/h 15.4 km/h 72 % 0.0 mm
04:17 2.6 °C -2.0 °C 1014.1 hPa North 10.5 km/h 15.4 km/h 72 % 0.0 mm
04:22 2.6 °C -1.8 °C 1014.1 hPa West 8.7 km/h 19.8 km/h 73 % 0.0 mm
04:27 2.4 °C -2.1 °C 1014.1 hPa North 12.2 km/h 19.8 km/h 72 % 0.0 mm
04:32 2.3 °C -2.0 °C 1014.1 hPa West 9.3 km/h 14.3 km/h 73 % 0.0 mm
04:33 2.3 °C -2.0 °C 1014.1 hPa NNW 4.7 km/h 14.3 km/h 73 % 0.0 mm
04:38 2.3 °C -2.0 °C 1014.1 hPa West 6.1 km/h 15.1 km/h 73 % 0.0 mm
04:43 2.3 °C -2.1 °C 1014.1 hPa West 7.6 km/h 15.1 km/h 73 % 0.0 mm
04:48 2.2 °C -2.2 °C 1014.1 hPa West 9.0 km/h 14.0 km/h 73 % 0.0 mm
04:53 2.1 °C -2.3 °C 1014.1 hPa West 6.4 km/h 17.2 km/h 73 % 0.0 mm
04:58 1.9 °C -2.4 °C 1014.1 hPa West 1.4 km/h 17.2 km/h 73 % 0.0 mm
05:03 1.7 °C -2.5 °C 1014.1 hPa West 5.0 km/h 9.7 km/h 74 % 0.0 mm
05:08 1.7 °C -2.5 °C 1014.1 hPa NW 9.0 km/h 12.6 km/h 74 % 0.0 mm
05:13 1.7 °C -2.5 °C 1014.1 hPa WNW 9.0 km/h 12.6 km/h 74 % 0.0 mm
05:18 1.8 °C -2.2 °C 1014.1 hPa West 12.6 km/h 12.6 km/h 75 % 0.0 mm
05:23 1.9 °C -2.1 °C 1014.1 hPa WSW 5.8 km/h 14.0 km/h 75 % 0.0 mm
05:28 1.9 °C -2.3 °C 1014.1 hPa West 7.9 km/h 14.0 km/h 74 % 0.0 mm
05:33 1.8 °C -2.4 °C 1014.1 hPa NW 5.0 km/h 12.2 km/h 74 % 0.0 mm
05:38 1.8 °C -2.2 °C 1014.1 hPa North 8.7 km/h 12.2 km/h 75 % 0.0 mm
05:43 1.9 °C -2.1 °C 1014.1 hPa WNW 1.8 km/h 10.8 km/h 75 % 0.0 mm
05:48 1.9 °C -2.1 °C 1014.1 hPa WSW 5.0 km/h 13.0 km/h 75 % 0.0 mm
05:53 1.9 °C -2.1 °C 1015.1 hPa West 6.9 km/h 16.3 km/h 75 % 0.0 mm
05:58 1.9 °C -2.1 °C 1015.1 hPa WNW 3.2 km/h 16.3 km/h 75 % 0.0 mm
06:03 1.8 °C -2.0 °C 1015.1 hPa NW 10.5 km/h 14.0 km/h 76 % 0.0 mm
06:08 1.8 °C -2.0 °C 1015.1 hPa ENE 6.9 km/h 14.0 km/h 76 % 0.0 mm
06:13 1.7 °C -2.1 °C 1015.1 hPa WNW 6.4 km/h 10.5 km/h 76 % 0.0 mm
06:18 1.6 °C -2.2 °C 1015.1 hPa WNW 5.5 km/h 10.1 km/h 76 % 0.0 mm
06:23 1.6 °C -2.2 °C 1015.1 hPa WSW 6.1 km/h 9.3 km/h 76 % 0.0 mm
06:28 1.4 °C -2.3 °C 1015.1 hPa West 4.7 km/h 9.0 km/h 76 % 0.0 mm
06:33 1.4 °C -2.3 °C 1015.1 hPa NW 10.5 km/h 11.6 km/h 76 % 0.0 mm
06:38 1.4 °C -2.2 °C 1015.1 hPa WNW 9.0 km/h 11.6 km/h 77 % 0.0 mm
06:43 1.4 °C -2.2 °C 1015.1 hPa WNW 10.5 km/h 11.6 km/h 77 % 0.0 mm
06:49 1.3 °C -2.3 °C 1015.1 hPa West 5.0 km/h 11.6 km/h 77 % 0.0 mm
06:54 1.3 °C -2.3 °C 1015.1 hPa WNW 4.7 km/h 10.1 km/h 77 % 0.0 mm
06:59 1.2 °C -2.4 °C 1015.1 hPa West 6.9 km/h 9.0 km/h 77 % 0.0 mm
07:04 1.1 °C -2.5 °C 1015.1 hPa West 5.5 km/h 11.6 km/h 77 % 0.0 mm
07:09 1.0 °C -2.6 °C 1015.1 hPa West 2.1 km/h 11.6 km/h 77 % 0.0 mm
07:14 1.0 °C -2.4 °C 1015.1 hPa Calm   9.3 km/h 78 % 0.0 mm
07:19 0.9 °C -2.5 °C 1015.1 hPa WSW 6.9 km/h 9.3 km/h 78 % 0.0 mm
07:24 0.7 °C -2.7 °C 1015.1 hPa West 7.6 km/h 9.7 km/h 78 % 0.0 mm
07:29 0.6 °C -2.6 °C 1015.1 hPa West 8.7 km/h 12.2 km/h 79 % 0.0 mm
07:34 0.6 °C -2.6 °C 1015.1 hPa SW 4.7 km/h 13.0 km/h 79 % 0.0 mm
07:39 0.6 °C -2.4 °C 1015.1 hPa West 5.0 km/h 13.0 km/h 80 % 0.0 mm
07:44 0.5 °C -2.6 °C 1015.1 hPa SSW 10.1 km/h 11.9 km/h 80 % 0.0 mm
07:49 0.4 °C -2.5 °C 1015.1 hPa WSW 8.7 km/h 12.2 km/h 81 % 0.0 mm
07:54 0.4 °C -2.3 °C 1015.1 hPa WNW 10.1 km/h 12.6 km/h 82 % 0.0 mm
07:59 0.4 °C -2.2 °C 1015.1 hPa West 10.5 km/h 12.6 km/h 83 % 0.0 mm
08:04 0.3 °C -2.3 °C 1015.1 hPa WSW 6.4 km/h 11.9 km/h 83 % 0.0 mm
08:09 0.3 °C -2.3 °C 1015.1 hPa West 4.3 km/h 11.9 km/h 83 % 0.0 mm
08:14 0.2 °C -2.2 °C 1015.1 hPa WSW 6.9 km/h 10.5 km/h 84 % 0.0 mm
08:19 0.2 °C -2.2 °C 1015.1 hPa SSW 8.7 km/h 10.5 km/h 84 % 0.0 mm
08:24 0.1 °C -2.3 °C 1015.1 hPa West 11.9 km/h 11.9 km/h 84 % 0.0 mm
08:29 0.2 °C -2.1 °C 1015.1 hPa West 12.2 km/h 14.3 km/h 85 % 0.0 mm
08:34 0.3 °C -1.8 °C 1015.1 hPa West 10.5 km/h 16.6 km/h 86 % 0.0 mm
08:39 0.4 °C -1.5 °C 1015.1 hPa WSW 14.0 km/h 16.6 km/h 87 % 0.0 mm
08:44 0.5 °C -1.3 °C 1015.1 hPa WSW 12.2 km/h 16.3 km/h 88 % 0.0 mm
08:49 0.5 °C -1.3 °C 1015.1 hPa WSW 8.7 km/h 15.1 km/h 88 % 0.0 mm
08:54 0.5 °C -1.3 °C 1016.1 hPa WSW 12.6 km/h 13.7 km/h 88 % 0.0 mm
08:59 0.6 °C -1.2 °C 1016.1 hPa WSW 11.9 km/h 14.0 km/h 88 % 0.0 mm
09:04 0.7 °C -0.9 °C 1016.1 hPa West 11.9 km/h 16.9 km/h 89 % 0.0 mm
09:09 0.8 °C -0.7 °C 1015.1 hPa West 13.7 km/h 16.9 km/h 90 % 0.0 mm
09:14 0.9 °C -0.6 °C 1015.1 hPa West 10.1 km/h 15.4 km/h 90 % 0.0 mm
09:19 1.0 °C -0.5 °C 1015.1 hPa West 16.6 km/h 16.6 km/h 90 % 0.0 mm
09:24 1.1 °C -0.2 °C 1015.1 hPa West 17.7 km/h 17.7 km/h 91 % 0.0 mm
09:29 1.2 °C -0.1 °C 1015.1 hPa West 14.3 km/h 17.7 km/h 91 % 0.0 mm
09:34 1.3 °C -0.1 °C 1015.1 hPa NW 10.1 km/h 17.7 km/h 91 % 0.0 mm
09:39 1.4 °C 0.1 °C 1016.1 hPa SSW 9.0 km/h 17.7 km/h 91 % 0.0 mm
09:44 1.4 °C 0.2 °C 1016.1 hPa NW 14.0 km/h 16.9 km/h 91 % 0.0 mm
09:49 1.4 °C 0.0 °C 1016.1 hPa West 6.4 km/h 16.6 km/h 90 % 0.0 mm
09:54 1.4 °C 0.0 °C 1016.1 hPa West 10.1 km/h 15.1 km/h 90 % 0.0 mm
09:59 1.4 °C 0.0 °C 1016.1 hPa West 7.9 km/h 15.1 km/h 90 % 0.0 mm
10:04 1.4 °C 0.0 °C 1016.1 hPa West 6.4 km/h 14.3 km/h 90 % 0.0 mm
10:09 1.4 °C 0.0 °C 1016.1 hPa West 12.6 km/h 14.3 km/h 90 % 0.0 mm
10:14 1.6 °C 0.1 °C 1016.1 hPa West 13.0 km/h 13.7 km/h 90 % 0.0 mm
10:19 1.6 °C 0.1 °C 1016.1 hPa WSW 12.6 km/h 15.4 km/h 90 % 0.0 mm
10:24 1.6 °C 0.3 °C 1016.1 hPa WSW 11.6 km/h 15.4 km/h 91 % 0.0 mm
10:29 1.7 °C 0.2 °C 1016.1 hPa WSW 10.8 km/h 15.4 km/h 90 % 0.0 mm
10:34 1.7 °C 0.3 °C 1016.1 hPa West 13.0 km/h 15.8 km/h 91 % 0.0 mm
10:40 1.8 °C 0.4 °C 1016.1 hPa West 11.6 km/h 15.8 km/h 91 % 0.0 mm
10:45 1.9 °C 0.6 °C 1016.1 hPa WSW 9.0 km/h 14.0 km/h 91 % 0.0 mm
10:50 1.9 °C 0.6 °C 1016.1 hPa WSW 9.7 km/h 13.7 km/h 91 % 0.0 mm
10:54 1.9 °C 0.6 °C 1016.1 hPa WSW 13.7 km/h 14.0 km/h 91 % 0.0 mm
11:00 1.9 °C 0.6 °C 1016.1 hPa WSW 9.7 km/h 19.8 km/h 91 % 0.0 mm
11:04 1.9 °C 0.7 °C 1016.1 hPa West 10.5 km/h 19.8 km/h 91 % 0.0 mm
11:09 2.1 °C 0.7 °C 1016.1 hPa West 11.9 km/h 17.2 km/h 91 % 0.0 mm
11:14 2.2 °C 0.8 °C 1016.1 hPa West 12.6 km/h 17.2 km/h 91 % 0.0 mm
11:20 2.2 °C 0.8 °C 1016.1 hPa West 10.1 km/h 17.2 km/h 91 % 0.0 mm
11:24 2.3 °C 0.9 °C 1016.1 hPa West 16.3 km/h 18.0 km/h 91 % 0.0 mm
11:29 2.3 °C 1.1 °C 1016.1 hPa West 13.0 km/h 18.0 km/h 91 % 0.0 mm
11:34 2.4 °C 1.1 °C 1016.1 hPa West 11.9 km/h 16.6 km/h 91 % 0.0 mm
11:40 2.4 °C 1.1 °C 1016.1 hPa WSW 11.6 km/h 16.6 km/h 91 % 0.0 mm
11:45 2.3 °C 1.1 °C 1016.1 hPa West 9.0 km/h 16.6 km/h 91 % 0.0 mm
11:50 2.3 °C 1.1 °C 1016.1 hPa West 13.7 km/h 16.3 km/h 91 % 0.0 mm
11:55 2.4 °C 1.1 °C 1016.1 hPa WSW 10.5 km/h 14.0 km/h 91 % 0.0 mm
12:00 2.6 °C 1.4 °C 1016.1 hPa WSW 9.7 km/h 14.0 km/h 92 % 0.0 mm
12:05 2.6 °C 1.4 °C 1016.1 hPa WSW 15.8 km/h 16.3 km/h 92 % 0.0 mm
12:10 2.7 °C 1.6 °C 1016.1 hPa West 13.7 km/h 16.3 km/h 93 % 0.0 mm
12:15 2.8 °C 1.8 °C 1016.1 hPa West 11.9 km/h 16.3 km/h 93 % 0.0 mm
12:20 2.9 °C 1.9 °C 1016.1 hPa West 15.4 km/h 17.7 km/h 93 % 0.0 mm
12:25 3.1 °C 2.0 °C 1016.1 hPa West 7.9 km/h 17.7 km/h 93 % 0.0 mm
12:30 3.7 °C 2.8 °C 1016.1 hPa West 14.0 km/h 16.3 km/h 94 % 0.0 mm
12:35 4.0 °C 3.2 °C 1016.1 hPa West 13.7 km/h 16.3 km/h 94 % 0.0 mm
12:40 4.3 °C 3.4 °C 1016.1 hPa West 12.2 km/h 16.9 km/h 94 % 0.0 mm
12:45 4.3 °C 3.3 °C 1016.1 hPa WSW 14.0 km/h 19.8 km/h 93 % 0.0 mm
12:50 4.2 °C 3.1 °C 1016.1 hPa West 5.0 km/h 19.8 km/h 92 % 0.0 mm
12:55 4.2 °C 2.9 °C 1016.1 hPa WNW 6.9 km/h 17.2 km/h 91 % 0.0 mm
13:00 4.4 °C 3.1 °C 1016.1 hPa NE 7.9 km/h 13.7 km/h 91 % 0.0 mm
13:05 4.6 °C 3.3 °C 1016.1 hPa NNE 7.9 km/h 13.7 km/h 91 % 0.0 mm
13:10 5.0 °C 3.5 °C 1015.1 hPa West 9.3 km/h 13.7 km/h 90 % 0.0 mm
13:15 5.0 °C 3.0 °C 1015.1 hPa WNW 8.7 km/h 13.7 km/h 87 % 0.0 mm
13:20 5.1 °C 2.6 °C 1015.1 hPa NNW 12.6 km/h 16.6 km/h 84 % 0.0 mm
13:25 5.4 °C 2.7 °C 1016.1 hPa NNW 6.9 km/h 21.2 km/h 83 % 0.0 mm
13:30 5.4 °C 1.8 °C 1016.1 hPa West 13.0 km/h 21.2 km/h 78 % 0.0 mm
13:35 5.5 °C 1.8 °C 1016.1 hPa NW 13.0 km/h 17.2 km/h 77 % 0.0 mm
13:40 5.2 °C 1.1 °C 1016.1 hPa North 5.0 km/h 17.2 km/h 75 % 0.0 mm
13:45 5.0 °C 0.9 °C 1016.1 hPa NW 6.1 km/h 17.7 km/h 75 % 0.0 mm
13:50 5.5 °C 1.4 °C 1016.1 hPa ENE 10.1 km/h 17.7 km/h 75 % 0.0 mm
13:55 5.8 °C 1.5 °C 1016.1 hPa West 8.7 km/h 21.2 km/h 74 % 0.0 mm
14:00 6.0 °C 1.5 °C 1016.1 hPa WNW 5.0 km/h 21.2 km/h 73 % 0.0 mm
14:05 5.7 °C 0.6 °C 1016.1 hPa WNW 9.3 km/h 17.2 km/h 70 % 0.0 mm
14:10 5.4 °C 0.3 °C 1016.1 hPa NNW 9.7 km/h 17.2 km/h 70 % 0.0 mm
14:15 5.3 °C 0.4 °C 1016.1 hPa NNE 6.9 km/h 16.6 km/h 71 % 0.0 mm
14:20 5.3 °C 0.7 °C 1016.1 hPa West 11.6 km/h 15.8 km/h 72 % 0.0 mm
14:25 5.2 °C 0.6 °C 1016.8 hPa NW 7.6 km/h 15.8 km/h 72 % 0.0 mm
14:30 5.2 °C 0.7 °C 1016.8 hPa North 7.6 km/h 15.8 km/h 73 % 0.0 mm
14:35 5.2 °C 0.7 °C 1016.8 hPa NNW 5.5 km/h 15.1 km/h 73 % 0.0 mm
14:40 5.2 °C 0.9 °C 1016.1 hPa NNW 12.6 km/h 15.4 km/h 74 % 0.0 mm
14:46 5.2 °C 0.9 °C 1016.1 hPa NNW 14.0 km/h 15.8 km/h 74 % 0.0 mm
14:51 5.2 °C 0.9 °C 1016.1 hPa North 5.8 km/h 20.1 km/h 74 % 0.0 mm
14:56 5.4 °C 1.1 °C 1016.8 hPa NNW 7.9 km/h 20.1 km/h 74 % 0.0 mm
15:01 5.7 °C 1.2 °C 1016.8 hPa East 5.0 km/h 19.1 km/h 73 % 0.0 mm
15:06 5.6 °C 1.1 °C 1016.8 hPa North 4.7 km/h 19.1 km/h 73 % 0.0 mm
15:11 5.5 °C 0.8 °C 1016.1 hPa WNW 4.7 km/h 17.2 km/h 72 % 0.0 mm
15:16 5.4 °C 0.7 °C 1016.1 hPa West 5.8 km/h 17.2 km/h 72 % 0.0 mm
15:21 5.3 °C 0.4 °C 1016.1 hPa West 5.0 km/h 17.7 km/h 71 % 0.0 mm
15:26 5.2 °C 0.6 °C 1016.8 hPa WNW 11.6 km/h 17.7 km/h 72 % 0.0 mm
15:31 5.2 °C 0.7 °C 1016.8 hPa West 7.6 km/h 23.0 km/h 73 % 0.0 mm
15:36 5.5 °C 1.1 °C 1016.8 hPa NNW 4.3 km/h 23.0 km/h 73 % 0.0 mm
15:41 5.6 °C 1.1 °C 1016.8 hPa NNW 20.1 km/h 20.1 km/h 73 % 0.0 mm
15:46 5.6 °C 1.1 °C 1016.8 hPa NE 11.6 km/h 20.1 km/h 73 % 0.0 mm
15:51 5.6 °C 0.9 °C 1016.8 hPa North 9.3 km/h 13.7 km/h 72 % 0.0 mm
15:56 5.5 °C 1.1 °C 1016.8 hPa NNW 16.6 km/h 16.6 km/h 73 % 0.0 mm
16:01 5.5 °C 0.8 °C 1016.8 hPa NNW 12.2 km/h 16.9 km/h 72 % 0.0 mm
16:06 5.5 °C 0.8 °C 1016.8 hPa North 6.4 km/h 16.9 km/h 72 % 0.0 mm
16:11 5.5 °C 0.7 °C 1016.8 hPa WNW 9.0 km/h 16.6 km/h 71 % 0.0 mm
16:16 5.2 °C 0.2 °C 1016.8 hPa WNW 6.4 km/h 20.1 km/h 70 % 0.0 mm
16:21 5.0 °C 0.2 °C 1016.8 hPa NNW 6.9 km/h 20.1 km/h 71 % 0.0 mm
16:26 4.9 °C 0.3 °C 1016.1 hPa NW 4.7 km/h 13.0 km/h 72 % 0.0 mm
16:31 4.8 °C 0.2 °C 1016.1 hPa WNW 5.0 km/h 13.0 km/h 72 % 0.0 mm
16:36 4.7 °C 0.3 °C 1016.1 hPa NW 9.3 km/h 10.1 km/h 73 % 0.0 mm
16:41 4.6 °C 0.2 °C 1016.8 hPa Calm   10.1 km/h 73 % 0.0 mm
16:42 4.6 °C 0.4 °C 1016.8 hPa NNW 2.1 km/h 10.1 km/h 74 % 0.0 mm
16:47 4.6 °C 0.4 °C 1016.8 hPa NNW 16.3 km/h 16.3 km/h 74 % 0.0 mm
16:52 4.6 °C 0.4 °C 1016.8 hPa NW 5.8 km/h 16.3 km/h 74 % 0.0 mm
16:57 4.5 °C 0.3 °C 1016.8 hPa NNW 8.7 km/h 14.0 km/h 74 % 0.0 mm
17:02 4.4 °C 0.2 °C 1016.8 hPa NNW 6.4 km/h 14.0 km/h 74 % 0.0 mm
17:07 4.3 °C 0.1 °C 1016.8 hPa North 3.2 km/h 13.7 km/h 74 % 0.0 mm
17:12 4.2 °C 0.0 °C 1016.8 hPa NNW 9.0 km/h 13.7 km/h 74 % 0.0 mm
17:17 4.0 °C -0.2 °C 1016.8 hPa NW 4.3 km/h 14.0 km/h 74 % 0.0 mm
17:22 3.9 °C -0.3 °C 1016.8 hPa NNW 9.3 km/h 14.0 km/h 74 % 0.0 mm
17:27 3.9 °C -0.3 °C 1016.8 hPa WNW 4.7 km/h 14.0 km/h 74 % 0.0 mm
17:32 3.8 °C -0.2 °C 1016.8 hPa WNW 8.7 km/h 14.0 km/h 75 % 0.0 mm
17:37 3.7 °C -0.3 °C 1016.8 hPa WSW 6.4 km/h 11.6 km/h 75 % 0.0 mm
17:42 3.6 °C -0.6 °C 1016.8 hPa WNW 1.4 km/h 11.6 km/h 74 % 0.0 mm
17:47 3.6 °C -0.4 °C 1016.8 hPa WNW 9.3 km/h 10.1 km/h 75 % 0.0 mm
17:53 3.6 °C -0.4 °C 1018.2 hPa Calm   10.1 km/h 75 % 0.0 mm
17:58 3.6 °C -0.4 °C 1018.2 hPa Calm   9.3 km/h 75 % 0.0 mm
18:03 3.6 °C -0.4 °C 1018.2 hPa West 3.2 km/h 10.5 km/h 75 % 0.0 mm
18:08 3.6 °C -0.4 °C 1018.2 hPa Calm   10.5 km/h 75 % 0.0 mm
18:13 3.6 °C -0.5 °C 1018.2 hPa Calm   6.4 km/h 75 % 0.0 mm
18:18 3.4 °C -0.6 °C 1018.2 hPa West 3.2 km/h 10.5 km/h 75 % 0.0 mm
18:23 3.4 °C -0.4 °C 1018.2 hPa WNW 3.2 km/h 15.8 km/h 76 % 0.0 mm
18:28 3.6 °C -0.3 °C 1018.2 hPa WNW 5.8 km/h 15.8 km/h 76 % 0.0 mm
18:33 3.6 °C -0.3 °C 1018.2 hPa NW 5.0 km/h 13.0 km/h 76 % 0.0 mm
18:38 3.4 °C -0.4 °C 1018.2 hPa NNE 5.5 km/h 10.5 km/h 76 % 0.0 mm
18:43 3.3 °C -0.5 °C 1018.2 hPa Calm   10.5 km/h 76 % 0.0 mm
18:48 3.1 °C -0.5 °C 1018.2 hPa North 9.0 km/h 9.0 km/h 77 % 0.0 mm
18:53 3.1 °C -0.3 °C 1018.2 hPa NE 10.1 km/h 13.7 km/h 79 % 0.0 mm
18:58 3.1 °C 0.1 °C 1018.2 hPa North 6.9 km/h 15.1 km/h 81 % 0.0 mm
19:03 2.9 °C 0.0 °C 1018.2 hPa Calm   15.1 km/h 81 % 0.0 mm
19:08 2.8 °C 0.1 °C 1018.2 hPa Calm   10.1 km/h 82 % 0.0 mm
19:13 2.7 °C 0.0 °C 1018.2 hPa NW 5.5 km/h 5.5 km/h 82 % 0.0 mm
19:18 2.7 °C 0.0 °C 1018.2 hPa Calm   5.5 km/h 82 % 0.0 mm
19:23 2.7 °C 0.2 °C 1018.8 hPa NNE 2.1 km/h 4.3 km/h 83 % 0.0 mm
19:28 2.7 °C 0.2 °C 1018.8 hPa North 2.6 km/h 8.7 km/h 83 % 0.0 mm
19:33 2.7 °C 0.3 °C 1018.8 hPa WNW 2.1 km/h 8.7 km/h 84 % 0.0 mm
19:38 2.7 °C 0.2 °C 1018.8 hPa Calm   8.7 km/h 84 % 0.0 mm
19:43 2.6 °C -0.1 °C 1018.8 hPa Calm   4.0 km/h 83 % 0.0 mm
19:48 2.4 °C -0.2 °C 1018.8 hPa Calm   4.0 km/h 83 % 0.0 mm
19:53 2.3 °C -0.2 °C 1018.8 hPa Calm   4.0 km/h 83 % 0.0 mm
19:58 2.3 °C -0.3 °C 1018.8 hPa Calm     83 % 0.0 mm
20:04 2.2 °C -0.4 °C 1018.8 hPa Calm     83 % 0.0 mm
20:09 1.9 °C -0.6 °C 1018.8 hPa Calm     83 % 0.0 mm
20:14 1.8 °C -0.8 °C 1018.8 hPa Calm     83 % 0.0 mm
20:19 1.6 °C -0.8 °C 1018.8 hPa Calm     84 % 0.0 mm
20:24 1.6 °C -0.8 °C 1018.8 hPa Calm     84 % 0.0 mm
20:29 1.6 °C -0.8 °C 1018.8 hPa Calm   5.5 km/h 84 % 0.0 mm
20:34 1.4 °C -1.1 °C 1018.8 hPa Calm   5.5 km/h 84 % 0.0 mm
20:39 1.4 °C -0.9 °C 1018.8 hPa Calm   5.5 km/h 85 % 0.0 mm
20:44 1.3 °C -0.9 °C 1018.8 hPa Calm   5.8 km/h 85 % 0.0 mm
20:49 1.4 °C -0.9 °C 1018.8 hPa WSW 6.4 km/h 6.4 km/h 85 % 0.0 mm
20:54 1.7 °C -0.4 °C 1018.8 hPa West 2.6 km/h 9.0 km/h 86 % 0.0 mm
20:59 1.9 °C -0.2 °C 1018.8 hPa ESE 6.4 km/h 9.3 km/h 86 % 0.0 mm
21:04 1.9 °C -0.3 °C 1018.8 hPa NW 2.1 km/h 11.1 km/h 85 % 0.0 mm
21:09 2.2 °C -0.3 °C 1018.8 hPa West 9.3 km/h 11.1 km/h 84 % 0.0 mm
21:14 2.2 °C -0.4 °C 1018.8 hPa Calm   11.6 km/h 83 % 0.0 mm
21:19 2.3 °C -0.3 °C 1018.8 hPa WNW 4.7 km/h 12.2 km/h 83 % 0.0 mm
21:24 2.3 °C -0.5 °C 1018.8 hPa NNW 3.2 km/h 12.2 km/h 82 % 0.0 mm
21:29 2.3 °C -0.4 °C 1018.8 hPa WSW 4.0 km/h 10.1 km/h 82 % 0.0 mm
21:34 2.4 °C -0.5 °C 1018.8 hPa North 5.8 km/h 10.1 km/h 81 % 0.0 mm
21:39 2.3 °C -0.7 °C 1018.2 hPa WNW 1.4 km/h 7.9 km/h 80 % 0.0 mm
21:44 2.4 °C -0.7 °C 1018.2 hPa West 5.8 km/h 7.9 km/h 80 % 0.0 mm
21:49 2.6 °C -0.6 °C 1018.2 hPa West 4.0 km/h 6.9 km/h 80 % 0.0 mm
21:54 2.6 °C -0.6 °C 1018.2 hPa WNW 5.5 km/h 8.7 km/h 80 % 0.0 mm
21:59 2.6 °C -0.7 °C 1018.2 hPa WNW 7.9 km/h 11.1 km/h 79 % 0.0 mm
22:04 2.6 °C -0.7 °C 1018.2 hPa WNW 1.4 km/h 11.1 km/h 79 % 0.0 mm
22:09 2.6 °C -0.7 °C 1018.8 hPa SW 5.0 km/h 11.6 km/h 79 % 0.0 mm
22:14 2.6 °C -0.7 °C 1018.8 hPa West 5.0 km/h 11.6 km/h 79 % 0.0 mm
22:19 2.7 °C -0.6 °C 1018.8 hPa WNW 9.0 km/h 10.5 km/h 79 % 0.0 mm
22:24 2.7 °C -0.6 °C 1018.8 hPa SW 9.0 km/h 10.8 km/h 79 % 0.0 mm
22:29 2.2 °C -1.3 °C 1018.8 hPa WSW 9.0 km/h 13.7 km/h 78 % 0.0 mm
22:34 1.8 °C -1.7 °C 1018.8 hPa West 5.5 km/h 13.7 km/h 78 % 0.0 mm
22:39 1.4 °C -1.9 °C 1018.8 hPa WSW 9.7 km/h 12.6 km/h 78 % 0.0 mm
22:44 1.3 °C -1.9 °C 1018.8 hPa WSW 9.3 km/h 12.2 km/h 79 % 0.0 mm
22:49 1.3 °C -1.9 °C 1018.8 hPa West 7.9 km/h 10.5 km/h 79 % 0.0 mm
22:54 1.3 °C -1.6 °C 1018.8 hPa West 4.7 km/h 10.1 km/h 81 % 0.0 mm
22:59 1.3 °C -1.6 °C 1018.8 hPa West 6.9 km/h 10.1 km/h 81 % 0.0 mm
23:04 1.2 °C -1.6 °C 1018.8 hPa WSW 9.3 km/h 9.7 km/h 82 % 0.0 mm
23:09 1.2 °C -1.4 °C 1018.8 hPa West 6.9 km/h 9.3 km/h 83 % 0.0 mm
23:10 1.2 °C -1.4 °C 1018.8 hPa West 5.5 km/h 9.3 km/h 83 % 0.0 mm
23:15 1.2 °C -1.4 °C 1018.8 hPa WSW 1.8 km/h 7.9 km/h 83 % 0.0 mm
23:20 1.1 °C -1.5 °C 1018.8 hPa Calm   4.7 km/h 83 % 0.0 mm
23:25 0.9 °C -1.5 °C 1018.8 hPa Calm   1.8 km/h 84 % 0.0 mm
23:30 0.7 °C -1.7 °C 1018.8 hPa Calm     84 % 0.0 mm
23:35 0.6 °C -1.8 °C 1018.8 hPa WSW 2.6 km/h 4.3 km/h 84 % 0.0 mm
23:40 0.4 °C -2.0 °C 1018.2 hPa Calm   4.3 km/h 84 % 0.0 mm
23:45 0.4 °C -1.8 °C 1018.2 hPa West 2.6 km/h 4.3 km/h 85 % 0.0 mm
23:50 0.6 °C -1.5 °C 1018.2 hPa East 2.6 km/h 7.9 km/h 86 % 0.0 mm
23:55 0.7 °C -1.1 °C 1018.8 hPa Calm   9.3 km/h 88 % 0.0 mm
Le Gheer Warneton
Courtoisie de Weather Underground - 2.25 mb

Mise a jour : 16-12-17 15:43:11
Généré par Cumulus 1.9.4 (1099)